This is the latest recevied weather packets stored in our database for station/object LU3HGB-WX. If no packets are shown the sender has not sent any weather packets the latest 10 day(s).
| Time | Temp. | Humidity | Pressure | Rain* | Wind** | Luminosity | Snow |
|---|---|---|---|---|---|---|---|
| 1777936959 | 10.56° C | 89% | 1010 hPa | 0 mm | - | 0 W/m² | - |
| 1777936659 | 10.56° C | 89% | 1010 hPa | 0 mm | - | 0 W/m² | - |
| 1777936360 | 10.56° C | 90% | 1010 hPa | 0 mm | - | 0 W/m² | - |
| 1777936059 | 10.56° C | 88% | 1010 hPa | 0 mm | - | 0 W/m² | - |
| 1777935759 | 11.11° C | 87% | 1010 hPa | 0 mm | - | 0 W/m² | - |
| 1777935459 | 11.11° C | 86% | 1010 hPa | 0 mm | - | 0 W/m² | - |
| 1777935159 | 11.67° C | 86% | 1010 hPa | 0 mm | - | 0 W/m² | - |
| 1777934860 | 11.67° C | 86% | 1009 hPa | 0 mm | - | 0 W/m² | - |
| 1777934559 | 11.67° C | 85% | 1009 hPa | 0 mm | - | 0 W/m² | - |
| 1777934259 | 12.22° C | 85% | 1009 hPa | 0 mm | - | 0 W/m² | - |
| 1777933959 | 12.78° C | 83% | 1009 hPa | 0 mm | - | 0 W/m² | - |
| 1777933660 | 12.78° C | 83% | 1009 hPa | 0 mm | - | 0 W/m² | - |
| 1777933359 | 13.33° C | 81% | 1009 hPa | 0 mm | - | 0 W/m² | - |
| 1777933059 | 13.33° C | 81% | 1009 hPa | 0 mm | - | 0 W/m² | - |
| 1777932759 | 13.89° C | 80% | 1009 hPa | 0 mm | - | 0 W/m² | - |
| 1777932460 | 14.44° C | 77% | 1009 hPa | 0 mm | - | 0 W/m² | - |
| 1777932159 | 15° C | 78% | 1009 hPa | 0 mm | - | 0 W/m² | - |
| 1777931860 | 15.56° C | 76% | 1010 hPa | 0 mm | - | 0 W/m² | - |
| 1777931560 | 16.11° C | 73% | 1010 hPa | 0 mm | - | 1 W/m² | - |
| 1777931260 | 16.67° C | 68% | 1009 hPa | 0 mm | - | 2 W/m² | - |
| 1777930959 | 17.22° C | 66% | 1009 hPa | 0 mm | - | 5 W/m² | - |
| 1777930659 | 17.78° C | 62% | 1009 hPa | 0 mm | - | 8 W/m² | - |
| 1777930359 | 18.33° C | 61% | 1009 hPa | 0 mm | - | 13 W/m² | - |
| 1777930059 | 18.33° C | 60% | 1009 hPa | 0 mm | - | 17 W/m² | - |
| 1777929759 | 18.89° C | 59% | 1009 hPa | 0 mm | - | 21 W/m² | - |
* Rain latest hour (hover to see other rain measurements)
** Current wind speed in m/s (hover to see current wind gust speed)